When you browse on this site, cookies collect data to enhance your experience and personalize the content and advertising you see.
Visit our Privacy Policy to learn more. By continuing to use the site, you agree to this use of cookies and data.
  • In Spain
  • List of Countries
  • For 7 days
  • Water Temperature
  • Weather Map
  • Weather Widgets
  • user-avatar
    Login

    Hourly Weather Tuzla

    Today, 5 April, Sunday

    Time Temperature Precipitation Wind Pressure Humidity
    00:00 +6°C° 0 mm 2 mps 724 mmHg 85%
    01:00 +6°C° 0 mm 2 mps 724 mmHg 86%
    02:00 +5°C° 0 mm 2 mps 724 mmHg 86%
    03:00 +6°C° 0 mm 1 mps 724 mmHg 87%
    04:00 +6°C° 0 mm 1 mps 724 mmHg 87%
    05:00 +5°C° 0 mm 2 mps 725 mmHg 86%
    06:00 +5°C° 0 mm 2 mps 725 mmHg 84%
    07:00 +6°C° 0 mm 2 mps 725 mmHg 77%
    08:00 +7°C° 0 mm 3 mps 726 mmHg 69%
    09:00 +8°C° 0 mm 4 mps 726 mmHg 61%
    10:00 +10°C° 0 mm 5 mps 726 mmHg 53%
    11:00 +11°C° 0 mm 6 mps 726 mmHg 49%
    12:00 +13°C° 0 mm 6 mps 726 mmHg 44%
    13:00 +14°C° 0 mm 7 mps 726 mmHg 39%
    14:00 +14°C° 0 mm 6 mps 726 mmHg 42%
    15:00 +13°C° 0 mm 6 mps 726 mmHg 44%
    16:00 +13°C° 0 mm 6 mps 726 mmHg 46%
    17:00 +12°C° 0 mm 5 mps 726 mmHg 53%
    18:00 +10°C° 0 mm 4 mps 726 mmHg 60%
    19:00 +8°C° 0 mm 3 mps 727 mmHg 68%
    20:00 +8°C° 0 mm 3 mps 727 mmHg 69%
    21:00 +7°C° 0 mm 2 mps 727 mmHg 71%
    22:00 +6°C° 0 mm 2 mps 727 mmHg 72%
    23:00 +7°C° 0 mm 1 mps 727 mmHg 73%

    Tomorrow, 6 April, Monday

    Time Temperature Precipitation Wind Pressure Humidity
    00:00 +6°C° 0 mm 1 mps 728 mmHg 74%
    01:00 +6°C° 0 mm 1 mps 728 mmHg 75%
    02:00 +5°C° 0 mm 1 mps 728 mmHg 75%
    03:00 +5°C° 0 mm 1 mps 728 mmHg 76%
    04:00 +4°C° 0 mm 1 mps 728 mmHg 76%
    05:00 +5°C° 0 mm 1 mps 728 mmHg 72%
    06:00 +6°C° 0 mm 1 mps 729 mmHg 68%
    07:00 +7°C° 0 mm 1 mps 729 mmHg 64%
    08:00 +8°C° 0 mm 2 mps 729 mmHg 56%
    09:00 +10°C° 0 mm 2 mps 730 mmHg 47%
    10:00 +12°C° 0 mm 3 mps 730 mmHg 39%
    11:00 +13°C° 0 mm 3 mps 730 mmHg 38%
    12:00 +14°C° 0 mm 4 mps 730 mmHg 37%
    13:00 +14°C° 0 mm 4 mps 730 mmHg 36%
    14:00 +14°C° 0 mm 4 mps 730 mmHg 38%
    15:00 +13°C° 0 mm 4 mps 729 mmHg 40%
    16:00 +13°C° 0 mm 5 mps 729 mmHg 42%
    17:00 +11°C° 0 mm 4 mps 729 mmHg 48%
    18:00 +9°C° 0 mm 3 mps 729 mmHg 55%
    19:00 +7°C° 0 mm 2 mps 729 mmHg 61%
    20:00 +6°C° 0 mm 2 mps 730 mmHg 63%
    21:00 +5°C° 0 mm 2 mps 730 mmHg 66%
    22:00 +4°C° 0 mm 2 mps 731 mmHg 68%
    23:00 +4°C° 0 mm 2 mps 731 mmHg 70%

    Day after tomorrow, 7 April, Tuesday

    Time Temperature Precipitation Wind Pressure Humidity
    00:00 +4°C° 0 mm 1 mps 730 mmHg 71%
    01:00 +4°C° 0 mm 1 mps 730 mmHg 73%
    02:00 +4°C° 0 mm 1 mps 730 mmHg 74%
    03:00 +3°C° 0 mm 1 mps 730 mmHg 75%
    04:00 +3°C° 0 mm 1 mps 731 mmHg 76%
    05:00 +4°C° 0 mm 1 mps 731 mmHg 72%
    06:00 +5°C° 0 mm 1 mps 731 mmHg 67%
    07:00 +6°C° 0 mm 1 mps 731 mmHg 63%
    08:00 +8°C° 0 mm 1 mps 731 mmHg 54%
    09:00 +10°C° 0 mm 2 mps 732 mmHg 45%
    10:00 +13°C° 0 mm 2 mps 732 mmHg 36%
    11:00 +13°C° 0 mm 3 mps 732 mmHg 34%
    12:00 +14°C° 0 mm 3 mps 732 mmHg 31%
    13:00 +15°C° 0 mm 4 mps 732 mmHg 29%
    14:00 +15°C° 0 mm 4 mps 731 mmHg 30%
    15:00 +15°C° 0 mm 4 mps 731 mmHg 31%
    16:00 +14°C° 0 mm 5 mps 731 mmHg 33%
    17:00 +12°C° 0 mm 4 mps 731 mmHg 40%
    18:00 +9°C° 0 mm 3 mps 731 mmHg 48%
    19:00 +7°C° 0 mm 2 mps 731 mmHg 56%
    20:00 +6°C° 0 mm 2 mps 731 mmHg 57%
    21:00 +6°C° 0 mm 1 mps 731 mmHg 58%
    22:00 +5°C° 0 mm 1 mps 731 mmHg 59%
    23:00 +5°C° 0 mm 1 mps 731 mmHg 58%

    8 April, Wednesday

    Time Temperature Precipitation Wind Pressure Humidity
    00:00 +5°C° 0 mm 1 mps 731 mmHg 58%
    01:00 +4°C° 0 mm 1 mps 731 mmHg 58%
    02:00 +4°C° 0 mm 1 mps 731 mmHg 58%
    03:00 +4°C° 0 mm 1 mps 730 mmHg 58%
    04:00 +3°C° 0 mm 1 mps 730 mmHg 58%
    05:00 +5°C° 0 mm 1 mps 730 mmHg 55%
    06:00 +6°C° 0 mm 1 mps 730 mmHg 53%
    07:00 +7°C° 0 mm 1 mps 730 mmHg 51%
    08:00 +9°C° 0 mm 1 mps 730 mmHg 45%
    09:00 +10°C° 0 mm 2 mps 730 mmHg 40%
    10:00 +14°C° 0 mm 2 mps 730 mmHg 35%
    11:00 +14°C° 0 mm 3 mps 729 mmHg 34%
    12:00 +14°C° 0 mm 4 mps 729 mmHg 32%
    13:00 +15°C° 0 mm 4 mps 729 mmHg 31%
    14:00 +15°C° 0 mm 4 mps 728 mmHg 34%
    15:00 +15°C° 0 mm 4 mps 728 mmHg 37%
    16:00 +14°C° 0 mm 4 mps 727 mmHg 40%
    17:00 +12°C° 0 mm 3 mps 727 mmHg 49%
    18:00 +10°C° 0 mm 2 mps 727 mmHg 58%
    19:00 +8°C° 0 mm 1 mps 727 mmHg 67%
    20:00 +8°C° 0 mm 1 mps 727 mmHg 68%
    21:00 +7°C° 0 mm 1 mps 727 mmHg 69%
    22:00 +6°C° 0 mm 1 mps 727 mmHg 71%
    23:00 +6°C° 0 mm 1 mps 727 mmHg 70%

    9 April, Thursday

    Time Temperature Precipitation Wind Pressure Humidity
    00:00 +6°C° 0 mm 1 mps 727 mmHg 70%
    01:00 +5°C° 0 mm 1 mps 726 mmHg 70%
    02:00 +5°C° 0 mm 1 mps 726 mmHg 70%
    03:00 +5°C° 0 mm 1 mps 726 mmHg 70%
    04:00 +4°C° 0 mm 1 mps 726 mmHg 69%
    05:00 +6°C° 0 mm 1 mps 726 mmHg 66%
    06:00 +6°C° 0 mm 0 mps 726 mmHg 62%
    07:00 +7°C° 0 mm 0 mps 726 mmHg 58%
    08:00 +10°C° 0 mm 0 mps 726 mmHg 52%
    09:00 +13°C° 0 mm 1 mps 726 mmHg 45%
    10:00 +16°C° 0 mm 1 mps 726 mmHg 38%
    11:00 +16°C° 0 mm 1 mps 726 mmHg 37%
    12:00 +17°C° 0 mm 2 mps 726 mmHg 36%
    13:00 +18°C° 0 mm 2 mps 725 mmHg 34%
    14:00 +18°C° 0 mm 2 mps 725 mmHg 37%
    15:00 +18°C° 0 mm 2 mps 725 mmHg 39%
    16:00 +17°C° 0 mm 2 mps 724 mmHg 41%
    17:00 +15°C° 0 mm 2 mps 724 mmHg 51%
    18:00 +13°C° 0 mm 1 mps 724 mmHg 60%
    19:00 +10°C° 0 mm 1 mps 724 mmHg 70%
    20:00 +10°C° 0 mm 1 mps 724 mmHg 72%
    21:00 +8°C° 0 mm 0 mps 724 mmHg 74%
    22:00 +8°C° 0 mm 0 mps 724 mmHg 75%
    23:00 +7°C° 0 mm 0 mps 724 mmHg 77%

    10 April, Friday

    Time Temperature Precipitation Wind Pressure Humidity
    00:00 +7°C° 0 mm 0 mps 724 mmHg 78%
    01:00 +6°C° 0 mm 0 mps 724 mmHg 79%
    02:00 +6°C° 0 mm 0 mps 724 mmHg 81%
    03:00 +6°C° 0 mm 0 mps 725 mmHg 82%
    04:00 +5°C° 0 mm 0 mps 725 mmHg 83%
    05:00 +7°C° 0 mm 0 mps 725 mmHg 78%
    06:00 +8°C° 0 mm 0 mps 725 mmHg 73%
    07:00 +10°C° 0 mm 0 mps 726 mmHg 69%
    08:00 +13°C° 0 mm 1 mps 726 mmHg 61%
    09:00 +15°C° 0 mm 1 mps 726 mmHg 52%
    10:00 +18°C° 0 mm 1 mps 726 mmHg 44%
    11:00 +18°C° 0 mm 2 mps 726 mmHg 43%
    12:00 +18°C° 0 mm 2 mps 726 mmHg 41%
    13:00 +19°C° 0 mm 3 mps 725 mmHg 40%
    14:00 +19°C° 0 mm 3 mps 725 mmHg 43%
    15:00 +18°C° 0 mm 3 mps 725 mmHg 45%
    16:00 +18°C° 0 mm 3 mps 724 mmHg 48%
    17:00 +16°C° 0 mm 2 mps 724 mmHg 55%
    18:00 +14°C° 0 mm 1 mps 725 mmHg 63%
    19:00 +11°C° 0 mm 0 mps 725 mmHg 70%
    20:00 +11°C° 0 mm 0 mps 725 mmHg 70%
    21:00 +11°C° 0 mm 0 mps 725 mmHg 69%
    22:00 +11°C° 0 mm 0 mps 726 mmHg 69%
    23:00 +11°C° 0 mm 0 mps 726 mmHg 70%
    Show more